[[{"header":{"parameterUnit":"m.s-1","parameterCategory":1,"la1":30.2991,"la2":30.254,"lo1":-89.0895,"lo2":-89.0444,"dy":0.0017,"dx":0.0017,"nx":28,"ny":28,"refTime":"2023-04-05T15:00:00:Z","depth":0,"parameterNumber":2,"parameterNumberName":"U-component_of_WINDS"},"data":[0,0,0,0,0,0,0,0,0,0,0,0,0,0,0,0,0,0,0,0,0,0,0,0,0,0,0,0,0,0,0,0,0,0,0,0,0,0,0,0,0,0,0,0,0,0,0,0,0,0,0,0,0,0,0,0,0,0,-2.6451,-2.6452,0,-2.6465,-2.6465,-2.6465,-2.6443,-2.6442,-2.6441,-2.6441,-2.6454,-2.6455,-2.6456,0,0,0,0,0,0,0,0,0,0,0,0,0,-2.6408,-2.6409,-2.6451,-2.6452,-2.6452,-2.6465,-2.6465,-2.6465,-2.6443,-2.6442,-2.6441,-2.644,-2.6454,-2.6455,-2.6456,0,0,0,0,0,0,0,0,0,0,0,0,0,-2.6425,-2.6409,-2.6451,-2.6442,-2.6442,-2.6465,-2.6465,-2.6465,-2.6443,-2.6442,-2.6441,-2.644,-2.6453,-2.6455,-2.6457,-2.6489,0,0,-2.6461,-2.6462,0,0,0,0,0,0,0,0,-2.6424,-2.6426,-2.6444,-2.6443,-2.6442,-2.6451,-2.6454,-2.6473,-2.6443,-2.6443,-2.644,-2.6439,-2.6454,-2.6455,-2.646,-2.649,-2.649,-2.6462,-2.6463,-2.6463,-2.6464,0,0,0,0,0,0,0,-2.6423,-2.6425,-2.6457,-2.6444,-2.6443,-2.6438,-2.6439,-2.6458,-2.6454,-2.6443,-2.6441,-2.6443,-2.6453,-2.6459,-2.6461,-2.649,-2.6462,-2.6463,-2.6464,-2.6465,-2.6547,-2.6548,0,0,0,0,0,0,-2.6422,-2.6425,-2.6456,-2.6457,-2.643,-2.644,-2.6441,-2.6449,-2.6454,-2.6454,-2.6444,-2.6442,-2.6457,-2.6459,-2.6461,-2.6499,-2.6463,-2.6465,-2.6466,-2.6546,-2.6547,-2.6549,0,0,0,0,0,0,-2.6422,-2.6425,-2.6456,-2.644,-2.6444,-2.6441,-2.6451,-2.645,-2.6455,-2.6455,-2.6454,-2.645,-2.6456,-2.6459,-2.6482,-2.6499,-2.6465,-2.6467,-2.6544,-2.6546,-2.6548,-2.6575,0,0,0,0,0,0,-2.642,-2.6425,-2.6437,-2.6441,-2.6445,-2.6476,-2.6452,-2.6451,-2.6458,-2.6456,-2.6461,-2.646,-2.6455,-2.648,-2.6484,-2.65,-2.6468,-2.6543,-2.6545,-2.6547,-2.6572,-2.6577,-2.6581,0,0,0,0,0,-2.6419,-2.6444,-2.6438,-2.6442,-2.646,-2.6477,-2.648,-2.6473,-2.646,-2.6472,-2.6472,-2.646,-2.6497,-2.6482,-2.6487,-2.6504,-2.6542,-2.6544,-2.6547,-2.657,-2.6576,-2.6581,0,0,0,0,0,0,-2.6443,-2.6445,-2.6438,-2.6465,-2.6471,-2.6474,-2.6488,-2.648,-2.649,-2.6487,-2.6479,-2.648,-2.6505,-2.6507,-2.6491,-2.6536,-2.6517,-2.6521,-2.6533,-2.6539,-2.6543,-2.6541,-2.6469,0,0,0,0,0,-2.6451,-2.6465,-2.6466,-2.649,-2.6494,-2.6491,-2.6498,-2.6493,-2.6499,-2.6502,-2.6503,-2.651,-2.6523,-2.6531,-2.6543,-2.6573,-2.6574,-2.6587,-2.6592,-2.6596,-2.6598,-2.6614,-2.662,-2.6558,-2.6558,-2.6558,0,0,-2.6469,-2.6471,-2.6481,-2.6495,-2.6499,-2.6514,-2.6493,-2.651,-2.652,-2.6504,-2.6526,-2.6528,-2.6534,-2.6561,-2.6573,-2.6564,-2.6616,-2.6599,-2.6602,-2.6603,-2.6618,-2.6623,-2.6629,-2.656,-2.6559,-2.6559,0,0,-2.6507,-2.6511,-2.6531,-2.6536,-2.6543,-2.6541,-2.6546,-2.655,-2.6551,-2.6573,-2.6561,-2.6574,-2.6596,-2.6601,-2.6607,-2.665,-2.6639,-2.6654,-2.6677,-2.6692,-2.6697,-2.6701,-2.6716,-2.6721,-2.6657,-2.6657,-2.6657,0,-2.6528,-2.6549,-2.6543,-2.656,-2.6567,-2.6553,-2.6574,-2.6579,-2.6589,-2.6594,-2.6584,-2.6612,-2.6616,-2.6643,-2.6654,-2.6659,-2.6664,-2.6652,-2.6697,-2.6701,-2.6705,-2.6718,-2.6724,-2.6659,-2.6659,-2.6658,-2.6658,0,-2.6574,-2.6589,-2.6605,-2.6615,-2.6624,-2.6642,-2.6639,-2.6649,-2.6643,-2.6642,-2.6665,-2.667,-2.6682,-2.6689,-2.6683,-2.6716,-2.6709,-2.6698,-2.6679,-2.6713,-2.6725,-2.673,-2.6661,-2.666,-2.666,-2.666,0,0,-2.6626,-2.6633,-2.6639,-2.6643,-2.665,-2.6662,-2.6681,-2.6693,-2.6701,-2.6709,-2.6724,-2.6744,-2.6734,-2.6741,-2.6736,-2.675,-2.6782,-2.6737,-2.6737,-2.6744,-2.6817,-2.6824,-2.683,-2.6776,-2.6777,-2.6778,-2.6816,0,-2.6664,-2.6695,-2.669,-2.672,-2.6734,-2.6722,-2.6738,-2.6745,-2.6745,-2.6757,-2.6758,-2.6771,-2.6758,-2.6761,-2.6775,-2.6775,-2.6796,-2.6773,-2.6789,-2.679,-2.6786,-2.6836,-2.6844,-2.6879,-2.6821,-2.6822,-2.6822,0,-2.6711,-2.6721,-2.6752,-2.6757,-2.6763,-2.6777,-2.6788,-2.68,-2.6807,-2.6806,-2.6814,-2.6808,-2.6826,-2.6808,-2.6834,-2.6818,-2.6825,-2.6827,-2.6828,-2.6827,-2.6807,-2.6836,-2.689,-2.6895,-2.683,-2.6829,-2.6829,0,-2.6744,-2.6766,-2.6787,-2.6791,-2.6798,-2.6808,-2.6812,-2.6818,-2.6825,-2.6835,-2.684,-2.6853,-2.6859,-2.6869,-2.6866,-2.6853,-2.6892,-2.6874,-2.6891,-2.6891,-2.6898,-2.6897,-2.6953,-2.6906,-2.6906,-2.6905,-2.6905,0,-2.6786,-2.6805,-2.6802,-2.6815,-2.6836,-2.6831,-2.6853,-2.6855,-2.6861,-2.6874,-2.6866,-2.6878,-2.6874,-2.6887,-2.6885,-2.6906,-2.691,-2.6909,-2.6908,-2.6909,-2.6909,-2.6912,-2.6908,-2.6907,-2.6907,-2.6906,-2.6906,0,-2.6825,-2.6824,-2.6846,-2.6851,-2.6853,-2.6869,-2.6873,-2.6885,-2.6885,-2.6902,-2.6906,-2.6906,-2.6921,-2.692,-2.6936,-2.6935,-2.696,-2.6957,-2.6958,-2.6956,-2.6973,-2.6971,-2.7031,-2.7038,-2.6988,-2.6989,-2.6989,0,-2.6851,-2.6865,-2.6872,-2.688,-2.6884,-2.6898,-2.6905,-2.6902,-2.691,-2.692,-2.6931,-2.6945,-2.6956,-2.698,-2.6982,-2.6994,-2.699,-2.7011,-2.6992,-2.6992,-2.6989,-2.6987,-2.6988,-2.7014,-2.7014,-2.7015,-2.7015,0,-2.6896,-2.6895,-2.6906,-2.6917,-2.6927,-2.6936,-2.6944,-2.6952,-2.6949,-2.6959,-2.6974,-2.6982,-2.6999,-2.7013,-2.7025,-2.7029,-2.7021,-2.7021,-2.7026,-2.7025,-2.7024,-2.7024,-2.6966,-2.7019,-2.7019,-2.7018,-2.7018,-2.7018,-2.6928,-2.694,-2.6947,-2.696,-2.6966,-2.6974,-2.6985,-2.6987,-2.6999,-2.7012,-2.701,-2.7026,-2.7034,-2.705,-2.7055,-2.7068,-2.706,-2.7067,-2.7069,-2.707,-2.7071,-2.7024,-2.707,-2.707,-2.707,-2.707,-2.707,0,-2.6971,-2.6975,-2.6987,-2.6999,-2.7009,-2.7002,-2.7011,-2.702,-2.7035,-2.7042,-2.7053,-2.707,-2.7084,-2.7087,-2.71,-2.711,-2.7107,-2.7113,-2.7111,-2.7112,-2.7078,-2.7072,-2.7115,-2.7115,-2.7115,-2.7115,-2.7115,-2.7115,-2.6995,-2.7015,-2.7015,-2.7038,-2.7042,-2.7057,-2.7063,-2.707,-2.7076,-2.7095,-2.7106,-2.7109,-2.7115,-2.7128,-2.714,-2.7141,-2.7146,-2.7153,-2.7153,-2.712,-2.7115,-2.711,-2.7105,-2.7155,-2.7155,-2.7186,-2.7186,-2.7187]},{"header":{"parameterUnit":"m.s-1","parameterCategory":1,"la1":30.2991,"la2":30.254,"lo1":-89.0895,"lo2":-89.0444,"dy":0.0017,"dx":0.0017,"nx":28,"ny":28,"refTime":"2023-04-05T15:00:00:Z","depth":0,"parameterNumber":3,"parameterNumberName":"V-component_of_WINDS"},"data":[0,0,0,0,0,0,0,0,0,0,0,0,0,0,0,0,0,0,0,0,0,0,0,0,0,0,0,0,0,0,0,0,0,0,0,0,0,0,0,0,0,0,0,0,0,0,0,0,0,0,0,0,0,0,0,0,0,0,2.2787,2.2788,0,2.2803,2.2803,2.2803,2.2801,2.28,2.28,2.28,2.2815,2.2815,2.2816,0,0,0,0,0,0,0,0,0,0,0,0,0,2.2756,2.2756,2.2787,2.2788,2.2788,2.2803,2.2803,2.2804,2.2801,2.28,2.28,2.28,2.2814,2.2815,2.2816,0,0,0,0,0,0,0,0,0,0,0,0,0,2.277,2.2756,2.2787,2.2788,2.2789,2.2803,2.2803,2.2804,2.2801,2.28,2.28,2.28,2.2814,2.2815,2.2816,2.283,0,0,2.2819,2.282,0,0,0,0,0,0,0,0,2.2769,2.2771,2.2788,2.2788,2.2789,2.28,2.2798,2.2813,2.2801,2.2796,2.28,2.2799,2.281,2.2811,2.2815,2.2831,2.2832,2.2819,2.282,2.282,2.282,0,0,0,0,0,0,0,2.2768,2.2771,2.2794,2.2788,2.2789,2.2788,2.279,2.28,2.2805,2.2796,2.2796,2.2798,2.281,2.2814,2.2815,2.2832,2.2819,2.282,2.2821,2.2821,2.2863,2.2864,0,0,0,0,0,0,2.2767,2.277,2.2793,2.2794,2.2778,2.2789,2.2791,2.2796,2.2805,2.2806,2.2799,2.2798,2.2813,2.2814,2.2816,2.2835,2.282,2.2821,2.2822,2.2863,2.2863,2.2864,0,0,0,0,0,0,2.2766,2.2769,2.2792,2.2782,2.2785,2.279,2.2796,2.2797,2.2801,2.2807,2.2807,2.2802,2.2812,2.2814,2.2828,2.2835,2.2822,2.2822,2.2862,2.2863,2.2864,2.2872,0,0,0,0,0,0,2.2766,2.2769,2.2774,2.2782,2.2785,2.2804,2.2797,2.2798,2.2803,2.2802,2.281,2.2811,2.2812,2.2826,2.2828,2.2836,2.2823,2.2861,2.2863,2.2863,2.2871,2.2873,2.2875,0,0,0,0,0,2.2764,2.2775,2.2774,2.2777,2.2792,2.2804,2.2806,2.2808,2.2803,2.2809,2.2813,2.281,2.2834,2.2827,2.283,2.2838,2.2861,2.2862,2.2863,2.287,2.2872,2.2874,0,0,0,0,0,0,2.2766,2.2776,2.2775,2.2788,2.2796,2.2803,2.281,2.281,2.2818,2.2817,2.2818,2.282,2.2834,2.2837,2.283,2.2854,2.2847,2.2849,2.2851,2.2853,2.2855,2.2854,2.2824,0,0,0,0,0,2.2768,2.2777,2.2785,2.2796,2.28,2.2805,2.281,2.2811,2.2818,2.2821,2.2826,2.2833,2.2842,2.2848,2.2856,2.2872,2.2874,2.2879,2.2881,2.2882,2.2884,2.2894,2.2897,2.2868,2.2868,2.2868,0,0,2.2772,2.2779,2.2784,2.2797,2.2802,2.2812,2.2807,2.2817,2.2825,2.2822,2.2835,2.284,2.2848,2.2862,2.2869,2.2866,2.2893,2.2884,2.2885,2.2886,2.2896,2.2899,2.2901,2.2869,2.2869,2.2869,0,0,2.2785,2.279,2.2801,2.2807,2.2817,2.282,2.2823,2.2832,2.2835,2.2848,2.2847,2.2857,2.2872,2.2878,2.2884,2.2902,2.2901,2.2905,2.2914,2.2925,2.2927,2.2929,2.2937,2.294,2.2907,2.2907,2.2907,0,2.2788,2.2803,2.2806,2.2817,2.2824,2.2824,2.2835,2.2841,2.2853,2.2857,2.2854,2.2875,2.288,2.2898,2.2903,2.2906,2.291,2.2904,2.2927,2.2929,2.2931,2.2939,2.2941,2.2907,2.2907,2.2907,2.2907,0,2.2808,2.2819,2.2826,2.2839,2.2846,2.2857,2.2863,2.287,2.2872,2.2876,2.2891,2.2898,2.2909,2.2913,2.2913,2.2932,2.2929,2.2926,2.2919,2.2934,2.2941,2.2944,2.2908,2.2908,2.2908,2.2908,0,0,2.282,2.2836,2.2839,2.2846,2.2858,2.2866,2.2879,2.2891,2.2897,2.2906,2.2917,2.2932,2.293,2.2936,2.2937,2.2946,2.2963,2.2942,2.2943,2.2947,2.2986,2.2989,2.2992,2.2963,2.2963,2.2964,2.2985,0,2.2834,2.2856,2.2861,2.288,2.2891,2.2893,2.2904,2.2913,2.2918,2.2928,2.2933,2.2944,2.294,2.2944,2.2953,2.2959,2.2971,2.2958,2.2974,2.2974,2.2972,2.2995,2.2998,2.3018,2.2988,2.2989,2.2989,0,2.2853,2.2864,2.2885,2.2898,2.2903,2.2913,2.2926,2.2935,2.2946,2.2949,2.2958,2.2959,2.2973,2.2966,2.2986,2.2977,2.2984,2.2988,2.2989,2.2991,2.2983,2.2999,2.3024,2.3028,2.2993,2.2993,2.2993,0,2.2862,2.2882,2.2897,2.2903,2.2918,2.2925,2.2932,2.2942,2.295,2.2962,2.2967,2.298,2.2987,2.2997,2.3002,2.2996,2.3023,2.3015,2.3026,2.3026,2.3032,2.3031,2.3059,2.3035,2.3035,2.3035,2.3035,0,2.2877,2.289,2.2902,2.2911,2.2926,2.2932,2.2947,2.2954,2.2964,2.2976,2.2978,2.2988,2.2995,2.3007,2.3011,2.3028,2.3031,2.3035,2.3036,2.3035,2.3035,2.304,2.3039,2.3036,2.3036,2.3035,2.3035,0,2.2889,2.2897,2.2914,2.2928,2.2932,2.2943,2.2955,2.2965,2.2972,2.2986,2.299,2.3,2.3015,2.3021,2.3039,2.3042,2.3062,2.3061,2.3059,2.3059,2.3071,2.307,2.3103,2.3109,2.308,2.308,2.308,0,2.2898,2.2909,2.2925,2.2933,2.2941,2.2954,2.2963,2.297,2.2979,2.2994,2.3003,2.3018,2.303,2.3054,2.3063,2.3077,2.3078,2.3089,2.308,2.3079,2.3079,2.3079,2.3081,2.309,2.309,2.3091,2.3091,0,2.2915,2.2919,2.2932,2.2948,2.2959,2.2971,2.2982,2.2989,2.2999,2.3009,2.3025,2.3035,2.3055,2.307,2.3086,2.3093,2.3094,2.3094,2.3097,2.3097,2.3095,2.3098,2.3064,2.3093,2.3093,2.3092,2.3092,2.3092,2.2926,2.2937,2.2951,2.2966,2.2976,2.2988,2.2999,2.3008,2.3021,2.3039,2.3042,2.306,2.3073,2.3094,2.3102,2.3116,2.3114,2.3118,2.312,2.3121,2.3123,2.3093,2.3119,2.3119,2.3119,2.3119,2.3119,0,2.2944,2.2954,2.2968,2.2986,2.2999,2.3,2.3014,2.3024,2.304,2.3053,2.3066,2.3086,2.3102,2.3113,2.3129,2.3139,2.314,2.3143,2.3142,2.3145,2.3123,2.3119,2.3142,2.3142,2.3142,2.3142,2.3142,2.3142,2.2955,2.2973,2.298,2.3004,2.3014,2.3032,2.304,2.3052,2.3062,2.3085,2.3099,2.3106,2.3119,2.3137,2.3153,2.3156,2.3162,2.3165,2.3168,2.3148,2.3146,2.3143,2.314,2.3166,2.3166,2.3189,2.3189,2.3189]}]]